Location: Newark
(25.4800°N, 85.7200°E)
Time: 09:45:12
(UTC+00:00)

Transit 4A - Pass Details

Date: 03 September 2019
Orbit: 867 x 978 km, 66.8° (Epoch: 21 October)

Event Time Altitude Azimuth Distance (km) Brightness Sun altitude
Rises 09:08:09 0° 208° (SSW) 3,638 11.4 45.4°
Reaches altitude 10° 09:10:42 10° 210° (SSW) 2,703 11.0 44.9°
Maximum altitude 09:17:01 72° 294° (WNW) 1,025 9.3 43.5°
Drops below altitude 10° 09:23:24 10° 18° (NNE) 2,722 10.2 42.1°
Sets 09:25:59 0° 21° (NNE) 3,666 10.8 41.5°
